TimeAKDT,TemperatureF,Dew PointF,Humidity,Sea Level PressureIn,VisibilityMPH,Wind Direction,Wind SpeedMPH,Gust SpeedMPH,PrecipitationIn,Events,Conditions,WindDirDegrees,DateUTC
12:53 AM,5.0,1.0,84,30.03,10.0,WNW,3.5,-,N/A,,Scattered Clouds,300,2013-03-19 08:53:00
1:53 AM,1.9,-2.0,83,30.04,10.0,NW,5.8,-,N/A,,Scattered Clouds,310,2013-03-19 09:53:00
2:53 AM,1.9,-0.9,88,30.04,10.0,NW,5.8,-,N/A,,Scattered Clouds,310,2013-03-19 10:53:00
3:53 AM,-0.0,-4.0,83,30.06,10.0,WNW,4.6,-,N/A,,Scattered Clouds,300,2013-03-19 11:53:00
4:53 AM,-7.1,-11.9,79,30.08,10.0,Calm,Calm,-,N/A,,Scattered Clouds,0,2013-03-19 12:53:00
5:53 AM,-11.9,-17.0,78,30.09,10.0,Calm,Calm,-,N/A,,Scattered Clouds,0,2013-03-19 13:53:00
6:53 AM,-13.0,-18.0,78,30.11,10.0,NW,4.6,-,N/A,,Scattered Clouds,310,2013-03-19 14:53:00
7:53 AM,-11.9,-17.0,78,30.11,10.0,WNW,3.5,-,N/A,,Mostly Cloudy,300,2013-03-19 15:53:00
8:53 AM,-6.0,-9.9,83,30.10,10.0,Calm,Calm,-,N/A,,Mostly Cloudy,0,2013-03-19 16:53:00
9:53 AM,-2.9,-6.0,87,30.11,10.0,Calm,Calm,-,N/A,,Mostly Cloudy,0,2013-03-19 17:53:00
10:53 AM,6.1,-0.9,73,30.09,10.0,NW,3.5,-,N/A,,Scattered Clouds,320,2013-03-19 18:53:00
11:53 AM,10.0,-5.1,51,30.08,10.0,NW,4.6,-,N/A,,Mostly Cloudy,320,2013-03-19 19:53:00
12:53 PM,9.0,-8.0,46,30.08,10.0,Calm,Calm,-,N/A,,Mostly Cloudy,0,2013-03-19 20:53:00
1:53 PM,10.9,-7.1,44,30.07,10.0,Calm,Calm,-,N/A,,Mostly Cloudy,0,2013-03-19 21:53:00
2:53 PM,12.9,-8.0,39,30.06,10.0,NW,10.4,-,N/A,,Mostly Cloudy,310,2013-03-19 22:53:00
3:53 PM,12.9,-7.1,41,30.04,10.0,Variable,5.8,-,N/A,,Mostly Cloudy,0,2013-03-19 23:53:00
4:53 PM,10.0,-6.0,48,30.05,10.0,WNW,5.8,-,N/A,,Mostly Cloudy,300,2013-03-20 00:53:00
5:53 PM,12.0,-6.0,44,30.05,10.0,NNW,6.9,-,N/A,,Mostly Cloudy,340,2013-03-20 01:53:00
6:53 PM,8.1,-5.1,55,30.06,10.0,North,5.8,-,N/A,,Scattered Clouds,350,2013-03-20 02:53:00
7:53 PM,1.9,-7.1,66,30.08,10.0,NNW,3.5,-,N/A,,Scattered Clouds,340,2013-03-20 03:53:00
8:53 PM,-5.1,-11.9,72,30.09,10.0,Calm,Calm,-,N/A,,Scattered Clouds,0,2013-03-20 04:53:00
9:53 PM,-11.9,-17.0,78,30.09,10.0,West,3.5,-,N/A,,Scattered Clouds,280,2013-03-20 05:53:00
10:53 PM,-13.0,-20.0,71,30.08,10.0,Calm,Calm,-,N/A,,Scattered Clouds,0,2013-03-20 06:53:00
11:53 PM,-16.1,-20.9,79,30.07,7.0,Calm,Calm,-,N/A,Snow,Light Snow,0,2013-03-20 07:53:00